Time,TemperatureF,DewpointF,PressureIn,WindDirection,WindDirectionDegrees,WindSpeedMPH,WindSpeedGustMPH,Humidity,HourlyPrecipIn,Conditions,Clouds,dailyrainin,SoftwareType,DateUTC
2013-02-13 00:14:00,46.6,46.0,30.56,WNW,294,2.0,7.0,97,0.00,,,0.00,weatherlink.com 1.10,2013-02-13 08:14:00,
2013-02-13 00:29:00,46.7,46.0,30.56,West,275,2.0,6.0,97,0.01,,,0.01,weatherlink.com 1.10,2013-02-13 08:29:00,
2013-02-13 00:44:00,46.7,46.0,30.56,West,265,5.0,8.0,97,0.01,,,0.01,weatherlink.com 1.10,2013-02-13 08:44:00,
2013-02-13 00:59:00,46.7,46.0,30.56,West,273,3.0,8.0,97,0.01,,,0.01,weatherlink.com 1.10,2013-02-13 08:59:00,
2013-02-13 01:14:00,46.6,46.0,30.56,West,271,4.0,7.0,97,0.02,,,0.02,weatherlink.com 1.10,2013-02-13 09:14:00,
2013-02-13 01:29:00,46.6,46.0,30.55,West,279,3.0,5.0,97,0.01,,,0.02,weatherlink.com 1.10,2013-02-13 09:29:00,
2013-02-13 01:44:00,46.6,46.0,30.56,West,273,2.0,5.0,97,0.01,,,0.02,weatherlink.com 1.10,2013-02-13 09:44:00,
2013-02-13 01:59:00,46.7,46.0,30.56,West,265,2.0,6.0,97,0.01,,,0.02,weatherlink.com 1.10,2013-02-13 09:59:00,
2013-02-13 02:14:00,46.6,46.0,30.56,WNW,291,1.0,6.0,97,0.00,,,0.02,weatherlink.com 1.10,2013-02-13 10:14:00,
2013-02-13 02:29:00,46.6,46.0,30.56,West,263,2.0,3.0,97,0.00,,,0.02,weatherlink.com 1.10,2013-02-13 10:29:00,
2013-02-13 02:44:00,46.6,46.0,30.56,WNW,284,4.0,4.0,97,0.01,,,0.03,weatherlink.com 1.10,2013-02-13 10:44:00,
2013-02-13 02:59:00,46.7,46.0,30.55,West,274,2.0,5.0,97,0.01,,,0.03,weatherlink.com 1.10,2013-02-13 10:59:00,
2013-02-13 03:14:00,46.6,46.0,30.55,WNW,290,3.0,6.0,97,0.01,,,0.03,weatherlink.com 1.10,2013-02-13 11:14:00,
2013-02-13 03:29:00,46.5,46.0,30.54,WNW,284,5.0,7.0,97,0.02,,,0.04,weatherlink.com 1.10,2013-02-13 11:29:00,
2013-02-13 03:44:00,46.3,46.0,30.55,West,261,2.0,5.0,97,0.01,,,0.04,weatherlink.com 1.10,2013-02-13 11:44:00,
2013-02-13 03:59:00,46.2,45.0,30.54,WSW,254,1.0,5.0,97,0.01,,,0.04,weatherlink.com 1.10,2013-02-13 11:59:00,
2013-02-13 04:14:00,46.4,46.0,30.54,West,263,4.0,6.0,97,0.01,,,0.04,weatherlink.com 1.10,2013-02-13 12:14:00,
2013-02-13 04:29:00,46.6,46.0,30.54,West,279,2.0,7.0,97,0.00,,,0.04,weatherlink.com 1.10,2013-02-13 12:29:00,
2013-02-13 04:44:00,46.7,46.0,30.54,West,265,2.0,5.0,97,0.01,,,0.05,weatherlink.com 1.10,2013-02-13 12:44:00,
2013-02-13 04:59:00,46.9,46.0,30.54,West,271,5.0,7.0,97,0.01,,,0.05,weatherlink.com 1.10,2013-02-13 12:59:00,
2013-02-13 05:14:00,47.0,46.0,30.54,WSW,250,2.0,8.0,97,0.01,,,0.05,weatherlink.com 1.10,2013-02-13 13:14:00,
2013-02-13 05:29:00,47.0,46.0,30.54,West,273,3.0,7.0,97,0.02,,,0.06,weatherlink.com 1.10,2013-02-13 13:29:00,
2013-02-13 05:44:00,47.1,46.0,30.54,West,278,7.0,8.0,97,0.01,,,0.06,weatherlink.com 1.10,2013-02-13 13:44:00,
2013-02-13 05:59:00,47.2,46.0,30.54,WNW,295,3.0,7.0,97,0.01,,,0.06,weatherlink.com 1.10,2013-02-13 13:59:00,
2013-02-13 06:14:00,47.2,46.0,30.54,West,276,4.0,8.0,97,0.01,,,0.06,weatherlink.com 1.10,2013-02-13 14:14:00,
2013-02-13 06:29:00,47.2,46.0,30.54,NW,304,6.0,9.0,97,0.01,,,0.07,weatherlink.com 1.10,2013-02-13 14:29:00,
2013-02-13 06:44:00,46.8,46.0,30.55,WNW,303,6.0,8.0,97,0.01,,,0.07,weatherlink.com 1.10,2013-02-13 14:44:00,
2013-02-13 06:59:00,46.4,46.0,30.55,NW,320,4.0,9.0,97,0.01,,,0.07,weatherlink.com 1.10,2013-02-13 14:59:00,
2013-02-13 07:14:00,46.3,46.0,30.55,NW,325,2.0,7.0,97,0.02,,,0.08,weatherlink.com 1.10,2013-02-13 15:14:00,
2013-02-13 07:29:00,46.3,46.0,30.55,NW,323,2.0,6.0,97,0.01,,,0.08,weatherlink.com 1.10,2013-02-13 15:29:00,
2013-02-13 07:44:00,46.0,45.0,30.55,NNW,336,0.0,7.0,97,0.01,,,0.08,weatherlink.com 1.10,2013-02-13 15:44:00,
2013-02-13 07:59:00,45.9,45.0,30.56,West,281,4.0,7.0,97,0.01,,,0.08,weatherlink.com 1.10,2013-02-13 15:59:00,
2013-02-13 08:14:00,45.9,45.0,30.56,NW,323,1.0,5.0,97,0.00,,,0.08,weatherlink.com 1.10,2013-02-13 16:14:00,
2013-02-13 08:29:00,45.6,45.0,30.56,NW,319,1.0,6.0,97,0.00,,,0.08,weatherlink.com 1.10,2013-02-13 16:29:00,
2013-02-13 08:44:00,45.6,45.0,30.57,WNW,289,0.0,3.0,97,0.00,,,0.08,weatherlink.com 1.10,2013-02-13 16:44:00,
2013-02-13 08:59:00,45.5,45.0,30.57,NW,322,1.0,5.0,97,0.01,,,0.09,weatherlink.com 1.10,2013-02-13 16:59:00,
2013-02-13 09:14:00,45.6,45.0,30.58,NNW,327,1.0,5.0,97,0.01,,,0.09,weatherlink.com 1.10,2013-02-13 17:14:00,
2013-02-13 09:29:00,45.3,45.0,30.58,NW,317,0.0,4.0,97,0.01,,,0.09,weatherlink.com 1.10,2013-02-13 17:29:00,
2013-02-13 09:44:00,45.3,45.0,30.59,NNW,332,0.0,5.0,97,0.01,,,0.09,weatherlink.com 1.10,2013-02-13 17:44:00,
2013-02-13 09:59:00,45.2,44.0,30.59,NW,309,0.0,3.0,97,0.00,,,0.09,weatherlink.com 1.10,2013-02-13 17:59:00,
2013-02-13 10:14:00,45.1,44.0,30.59,North,360,0.0,2.0,97,0.01,,,0.10,weatherlink.com 1.10,2013-02-13 18:14:00,
2013-02-13 10:29:00,45.1,44.0,30.59,North,360,0.0,0.0,97,0.01,,,0.10,weatherlink.com 1.10,2013-02-13 18:29:00,
2013-02-13 10:44:00,45.2,44.0,30.59,North,360,0.0,0.0,97,0.01,,,0.10,weatherlink.com 1.10,2013-02-13 18:44:00,
2013-02-13 10:59:00,45.2,44.0,30.59,NW,321,0.0,1.0,97,0.01,,,0.10,weatherlink.com 1.10,2013-02-13 18:59:00,
2013-02-13 11:14:00,45.0,44.0,30.60,NW,321,0.0,2.0,97,0.00,,,0.10,weatherlink.com 1.10,2013-02-13 19:14:00,
2013-02-13 11:29:00,45.5,45.0,30.60,NW,321,1.0,1.0,97,0.00,,,0.10,weatherlink.com 1.10,2013-02-13 19:29:00,
2013-02-13 11:44:00,45.2,44.0,30.60,WNW,292,1.0,3.0,97,0.00,,,0.10,weatherlink.com 1.10,2013-02-13 19:44:00,
2013-02-13 11:59:00,45.7,45.0,30.59,WNW,292,0.0,0.0,97,0.01,,,0.11,weatherlink.com 1.10,2013-02-13 19:59:00,
2013-02-13 12:14:00,46.3,46.0,30.59,WNW,292,0.0,0.0,97,0.01,,,0.11,weatherlink.com 1.10,2013-02-13 20:14:00,
2013-02-13 12:29:00,46.1,45.0,30.58,WNW,292,0.0,0.0,97,0.01,,,0.11,weatherlink.com 1.10,2013-02-13 20:29:00,
2013-02-13 12:44:00,46.3,46.0,30.58,WNW,292,0.0,0.0,97,0.01,,,0.11,weatherlink.com 1.10,2013-02-13 20:44:00,
2013-02-13 12:59:00,46.2,45.0,30.58,WNW,292,0.0,0.0,97,0.00,,,0.11,weatherlink.com 1.10,2013-02-13 20:59:00,
2013-02-13 13:14:00,46.0,45.0,30.57,WNW,292,0.0,0.0,97,0.00,,,0.11,weatherlink.com 1.10,2013-02-13 21:14:00,
2013-02-13 13:29:00,46.1,45.0,30.57,WNW,292,0.0,0.0,97,0.01,,,0.12,weatherlink.com 1.10,2013-02-13 21:29:00,
2013-02-13 13:44:00,45.5,45.0,30.57,West,281,3.0,4.0,96,0.01,,,0.12,weatherlink.com 1.10,2013-02-13 21:44:00,
2013-02-13 13:59:00,45.8,45.0,30.57,WNW,302,2.0,4.0,96,0.01,,,0.12,weatherlink.com 1.10,2013-02-13 21:59:00,
2013-02-13 14:14:00,45.8,45.0,30.57,West,262,0.0,5.0,96,0.01,,,0.12,weatherlink.com 1.10,2013-02-13 22:14:00,
2013-02-13 14:44:00,46.0,45.0,30.57,WNW,291,2.0,4.0,95,0.00,,,0.12,weatherlink.com 1.10,2013-02-13 22:44:00,
2013-02-13 14:59:00,46.0,44.0,30.57,West,274,1.0,4.0,94,0.00,,,0.12,weatherlink.com 1.10,2013-02-13 22:59:00,
2013-02-13 15:14:00,46.2,45.0,30.57,West,267,3.0,4.0,95,0.00,,,0.12,weatherlink.com 1.10,2013-02-13 23:14:00,
2013-02-13 15:29:00,46.5,45.0,30.57,West,278,0.0,3.0,95,0.00,,,0.12,weatherlink.com 1.10,2013-02-13 23:29:00,
2013-02-13 15:44:00,46.7,45.0,30.57,West,278,0.0,3.0,95,0.00,,,0.12,weatherlink.com 1.10,2013-02-13 23:44:00,
2013-02-13 15:59:00,46.7,45.0,30.57,NW,304,1.0,2.0,94,0.00,,,0.12,weatherlink.com 1.10,2013-02-13 23:59:00,
2013-02-13 16:14:00,46.5,45.0,30.56,West,275,0.0,3.0,94,0.00,,,0.12,weatherlink.com 1.10,2013-02-14 00:14:00,
2013-02-13 16:29:00,46.5,45.0,30.56,West,275,0.0,3.0,93,0.00,,,0.12,weatherlink.com 1.10,2013-02-14 00:29:00,
2013-02-13 16:44:00,46.3,44.0,30.57,West,276,0.0,2.0,92,0.00,,,0.12,weatherlink.com 1.10,2013-02-14 00:44:00,
2013-02-13 16:59:00,46.3,44.0,30.57,WNW,285,0.0,2.0,91,0.00,,,0.12,weatherlink.com 1.10,2013-02-14 00:59:00,
2013-02-13 17:14:00,46.3,44.0,30.58,WNW,285,0.0,0.0,92,0.00,,,0.12,weatherlink.com 1.10,2013-02-14 01:14:00,
2013-02-13 17:29:00,45.9,44.0,30.57,WNW,285,0.0,0.0,92,0.00,,,0.12,weatherlink.com 1.10,2013-02-14 01:29:00,
2013-02-13 17:44:00,45.4,44.0,30.57,WNW,285,0.0,0.0,93,0.00,,,0.12,weatherlink.com 1.10,2013-02-14 01:44:00,
2013-02-13 17:59:00,45.0,43.0,30.57,WNW,285,0.0,0.0,93,0.00,,,0.12,weatherlink.com 1.10,2013-02-14 01:59:00,
2013-02-13 18:15:00,44.3,42.0,30.57,WNW,285,0.0,0.0,93,0.00,,,0.12,weatherlink.com 1.10,2013-02-14 02:15:00,
2013-02-13 18:30:00,43.8,42.0,30.57,WNW,285,0.0,0.0,94,0.00,,,0.12,weatherlink.com 1.10,2013-02-14 02:30:00,
2013-02-13 18:45:00,43.3,42.0,30.57,WNW,285,0.0,1.0,94,0.00,,,0.12,weatherlink.com 1.10,2013-02-14 02:45:00,
2013-02-13 19:00:00,43.1,42.0,30.57,WNW,285,0.0,0.0,94,0.00,,,0.12,weatherlink.com 1.10,2013-02-14 03:00:00,
2013-02-13 19:15:00,43.2,42.0,30.58,WNW,285,0.0,0.0,95,0.00,,,0.12,weatherlink.com 1.10,2013-02-14 03:15:00,
2013-02-13 19:30:00,43.3,42.0,30.58,WNW,285,0.0,0.0,95,0.00,,,0.12,weatherlink.com 1.10,2013-02-14 03:30:00,
2013-02-13 19:45:00,43.4,42.0,30.58,WNW,285,0.0,0.0,95,0.00,,,0.12,weatherlink.com 1.10,2013-02-14 03:45:00,
2013-02-13 20:00:00,43.5,42.0,30.58,WNW,285,0.0,0.0,95,0.00,,,0.12,weatherlink.com 1.10,2013-02-14 04:00:00,
2013-02-13 20:15:00,43.6,42.0,30.58,WNW,285,0.0,0.0,95,0.00,,,0.12,weatherlink.com 1.10,2013-02-14 04:15:00,
2013-02-13 21:00:00,43.6,42.0,30.60,WNW,285,0.0,0.0,95,0.00,,,0.12,weatherlink.com 1.10,2013-02-14 05:00:00,
2013-02-13 21:15:00,43.6,43.0,30.60,WNW,285,0.0,0.0,96,0.00,,,0.12,weatherlink.com 1.10,2013-02-14 05:15:00,
2013-02-13 21:30:00,43.5,42.0,30.59,WNW,285,0.0,0.0,95,0.00,,,0.12,weatherlink.com 1.10,2013-02-14 05:30:00,
2013-02-13 21:45:00,43.3,42.0,30.60,WNW,285,0.0,0.0,95,0.00,,,0.12,weatherlink.com 1.10,2013-02-14 05:45:00,
2013-02-13 22:00:00,43.2,42.0,30.60,WNW,285,0.0,0.0,96,0.00,,,0.12,weatherlink.com 1.10,2013-02-14 06:00:00,
2013-02-13 22:15:00,43.3,42.0,30.61,WNW,285,0.0,0.0,96,0.00,,,0.12,weatherlink.com 1.10,2013-02-14 06:15:00,
2013-02-13 22:30:00,43.3,42.0,30.61,WNW,285,0.0,0.0,96,0.00,,,0.12,weatherlink.com 1.10,2013-02-14 06:30:00,
2013-02-13 22:45:00,43.3,42.0,30.61,WNW,285,0.0,0.0,96,0.00,,,0.12,weatherlink.com 1.10,2013-02-14 06:45:00,
2013-02-13 23:00:00,43.3,42.0,30.61,WNW,285,0.0,0.0,96,0.00,,,0.12,weatherlink.com 1.10,2013-02-14 07:00:00,
2013-02-13 23:15:00,43.3,42.0,30.61,WNW,285,0.0,0.0,96,0.00,,,0.12,weatherlink.com 1.10,2013-02-14 07:15:00,
2013-02-13 23:30:00,43.3,42.0,30.61,WNW,285,0.0,0.0,96,0.00,,,0.12,weatherlink.com 1.10,2013-02-14 07:30:00,
2013-02-13 23:45:00,43.3,42.0,30.61,WNW,285,0.0,0.0,96,0.00,,,0.12,weatherlink.com 1.10,2013-02-14 07:45:00,